Regional Weather Roundup
Issued by NWS

Home | Current Version | Previous Version | Text Only | Print | Product List | Glossary Off
Versions: 1 2 3 4 5 6 7 8 9 10 11 12 13 14 15 16 17 18 19 20 21 22 23 24 25 26 27 28 29 30 31 32 33 34 35 36 37 38 39 40 41 42 43 44 45 46 47 48 49 50

000
ASUS43 KBIS 220210
RWRND

NORTH DAKOTA REGIONAL WEATHER ROUNDUP
NATIONAL WEATHER SERVICE BISMARCK ND
900 PM CDT MON AUG 21 2017

NOTE: "FAIR" INDICATES FEW OR NO CLOUDS BELOW 12,000 FEET WITH NO
SIGNIFICANT WEATHER AND/OR OBSTRUCTIONS TO VISIBILITY.


NDZ001>003-009>011-017-220300-
NORTHWEST NORTH DAKOTA

CITY           SKY/WX    TMP DP  RH WIND       PRES   REMARKS
WILLISTON      CLEAR     59  37  44 NW8       30.12R
MINOT          CLEAR     63  40  42 W9        30.06R
MINOT AFB      CLEAR     58  40  51 NW7       30.05R
$$

NDZ018>021-031>035-040>046-220300-
SOUTHWEST NORTH DAKOTA

CITY           SKY/WX    TMP DP  RH WIND       PRES   REMARKS
BISMARCK       CLEAR     67  43  41 NW7       30.07R
DICKINSON      CLEAR     64  37  36 N8        30.12R
GARRISON         N/A     56  42  59 NW7       30.08R
HETTINGER ARPT CLEAR     64  39  39 N8        30.15R
$$

NDZ004>008-012>016-024-026-027-054-220300-
NORTHEAST NORTH DAKOTA

CITY           SKY/WX    TMP DP  RH WIND       PRES   REMARKS
GRAND FORKS    PTCLDY    60  53  77 NW9       29.95R
GRND FRKS AFB  CLEAR     63  54  73 N12G18    29.97R
DEVILS LAKE    CLEAR     62  47  57 NW12      30.02R
$$

NDZ022-023-025-028>030-036>039-047>053-220300-
SOUTHEAST NORTH DAKOTA

CITY           SKY/WX    TMP DP  RH WIND       PRES   REMARKS
FARGO          MOCLDY    66  58  75 W7        29.92R
JAMESTOWN      CLEAR     62  48  60 NW10      30.01R
$$




USA.gov is the U.S. government's official web portal to all federal, state and local government web resources and services.